Akron Canton, OH

5:56 AM EDT on April 22, 2018 (GMT -0400)
Akron-Canton Regional

Weather History for KCAK - June, 2013

Change the Weather History Date:

Thursday, June 20, 2013

  Actual Average Record
Temperature  
Mean Temperature 67 °F 69 °F  
Max Temperature 81 °F 79 °F 95 °F (1933)
Min Temperature 52 °F 59 °F 41 °F (1914)
Degree Days  
Heating Degree Days 0 1  
Month to date heating degree days 27 43  
Since 1 June heating degree days 27 43  
Since 1 July heating degree days 5829 6144  
Cooling Degree Days 2 5  
Month to date cooling degree days 58 74  
Year to date cooling degree days 164 116  
Since 1 June cooling degree days 58 74  
Growing Degree Days 16 (Base 50)    
Moisture  
Dew Point 50 °F    
Average Humidity 60    
Maximum Humidity 83    
Minimum Humidity 36    
Precipitation  
Precipitation 0.00 in 0.13 in 0.62 in (1993)
Month to date precipitation 3.81 2.55  
Year to date precipitation 16.07 18.28  
Snow  
Snow 0.00 in 0.00 in - ()
Month to date snowfall 0.0 0.0  
Since 1 June snowfall 0.0 0.0  
Since 1 July snowfall 47.2 47.5  
Snow Depth 0.00 in    
Sea Level Pressure  
Sea Level Pressure 30.20 in    
Wind  
Wind Speed 3 mph (NE)    
Max Wind Speed 9 mph    
Max Gust Speed 13 mph    
Visibility 10 miles    
Events      
T = Trace of Precipitation, MM = Missing Value Source: NWS Daily Summary

Daily Weather History Graph

Daily Weather History Graph

Search for Another Location

Airport or City:

Astronomy

Jun. 20, 2013 Rise Set
Actual Time 5:53 AM EDT 9:00 PM EDT
Civil Twilight 5:20 AM EDT 9:34 PM EDT
Nautical Twilight 4:37 AM EDT 10:17 PM EDT
Astronomical Twilight 3:46 AM EDT 11:08 PM EDT
Moon 6:00 PM EDT (6/20) 3:20 AM EDT (6/20)
Length of Visible Light 16h 14m
Length of Day
15h 07m
Waxing Gibbous, 89% of the Moon is Illuminated
Jun 20
Waxing Gibbous
Jun 23
Full
Jun 30
Last Quarter
Jul 8
New
Jul 15
First Quarter

Hourly Weather History & Observations

Time (EDT) Temp. Dew Point Humidity Pressure Visibility Wind Dir Wind Speed Gust Speed Precip Events Conditions
12:51 AM 55.9 °F 48.9 °F 77% 30.18 in 10.0 mi NE 5.8 mph - N/A   Clear
1:51 AM 55.9 °F 48.0 °F 75% 30.17 in 10.0 mi NE 4.6 mph - N/A   Clear
2:51 AM 55.0 °F 48.0 °F 77% 30.17 in 10.0 mi NE 4.6 mph - N/A   Clear
3:51 AM 54.0 °F 46.9 °F 77% 30.18 in 10.0 mi Calm Calm - N/A   Clear
4:51 AM 53.1 °F 48.0 °F 83% 30.19 in 10.0 mi Calm Calm - N/A   Clear
5:51 AM 54.0 °F 48.0 °F 80% 30.19 in 9.0 mi NE 3.5 mph - N/A   Clear
6:51 AM 57.0 °F 48.9 °F 74% 30.20 in 9.0 mi Calm Calm - N/A   Clear
7:51 AM 62.1 °F 51.1 °F 67% 30.21 in 10.0 mi Calm Calm - N/A   Clear
8:51 AM 66.0 °F 53.1 °F 63% 30.23 in 8.0 mi South 3.5 mph - N/A   Clear
9:51 AM 71.1 °F 53.1 °F 53% 30.24 in 8.0 mi Variable 4.6 mph - N/A   Clear
10:51 AM 75.0 °F 48.0 °F 38% 30.24 in 10.0 mi Calm Calm - N/A   Partly Cloudy
11:51 AM 75.0 °F 48.0 °F 38% 30.23 in 10.0 mi Calm Calm - N/A   Partly Cloudy
12:51 PM 75.9 °F 48.0 °F 37% 30.23 in 10.0 mi SW 4.6 mph - N/A   Scattered Clouds
1:51 PM 79.0 °F 50.0 °F 36% 30.21 in 10.0 mi Calm Calm - N/A   Scattered Clouds
2:51 PM 79.0 °F 51.1 °F 38% 30.21 in 10.0 mi Variable 3.5 mph - N/A   Scattered Clouds
3:51 PM 79.0 °F 50.0 °F 36% 30.22 in 10.0 mi WSW 4.6 mph - N/A   Mostly Cloudy
4:51 PM 80.1 °F 52.0 °F 38% 30.21 in 10.0 mi North 3.5 mph - N/A   Mostly Cloudy
5:51 PM 78.1 °F 50.0 °F 37% 30.21 in 10.0 mi WSW 5.8 mph - N/A   Mostly Cloudy
6:51 PM 78.1 °F 53.1 °F 42% 30.20 in 10.0 mi NNE 5.8 mph - N/A   Mostly Cloudy
7:51 PM 75.9 °F 53.1 °F 45% 30.19 in 10.0 mi NNE 5.8 mph - N/A   Mostly Cloudy
8:51 PM 71.1 °F 53.1 °F 53% 30.19 in 10.0 mi NNE 4.6 mph - N/A   Scattered Clouds
9:51 PM 70.0 °F 52.0 °F 53% 30.19 in 10.0 mi ENE 4.6 mph - N/A   Partly Cloudy
10:51 PM 66.9 °F 53.1 °F 61% 30.21 in 10.0 mi ENE 4.6 mph - N/A   Partly Cloudy
11:51 PM 66.9 °F 50.0 °F 54% 30.22 in 10.0 mi East 5.8 mph - N/A   Partly Cloudy